CZ-4 DEB, 26142

Orbit data source: Space-Track

CZ-4 DEB, 26142 is space debris in SSO originally from a launch on Thu, 14 Oct 1999 UTC launched from the Taiyaun Space Center, China (TSC). Debris objects in space refer to the collection of defunct objects orbiting the Earth. Examples of debris include non-operational satellites, rocket bodies, and fragments generated from explosions, collisions, or faulty payload assembly.

Loading next visibility...
Identifier
26142, 1999-057AE
Orbit
SSO
Country
Flag of CNCN / PRC
Related business
Manufacturer
Unknown
Mission
Spacecraft
Bus & Motor
Unknown
Mass
Unknown
Launch date (UTC)
1999-10-14 (26 years ago)
Launch vehicle
Unknown
Launch site
Taiyaun Space Center, China (TSC)
Object type
Payload
Rocket body
Debris
Shape & HBR
Unknown shape, 0.1 m
Radar Cross Section
Small (<0.1 m²)

Expand to show TLE details & history
Last TLE update: 4 days ago

TLE from 4 days ago
0 CZ-4 DEB
1 26142U 99057AE  25308.21811882  .00000880  00000-0  54623-3 0  9993
2 26142  98.7512 198.8579 0298707  33.2846  88.7006 13.87539461293218
Epoch: 2025-11-04T05:14Z
TLE epoch observation values (Epoch: 2025-11-04T05:14:05.466Z)
Latitude
53.76338°
Longitude
-91.31235°
Altitude
947.614 km
Speed
7.382 km/s
True Right ascension
02h 03m 40s
True Declination
53° 36' 13"
Sunlit
Object was in full shadow at epoch
Visualization orbit readout
Latitude
Unknown
Longitude
Unknown
Altitude
Unknown
Speed
Unknown
Apparent Right ascension
Unknown
Apparent Declination
Unknown
Sunlit
N/A
Visualization observer readout
Local Sidereal Time
17:43:11
Azimuth
Unknown
Elevation
Unknown
Doppler factor
Unknown
Orbital elements
Apogee altitude
1,152.899 km
Perigee altitude
716.034 km
Semi-major axis
7,312.604 km
Eccentricity
0.02987
Inclination
98.7512°
RAAN
198.8579°
Arg. of periapsis
33.2846°
True anomaly
92.12351°
Mean anomaly
88.7006°
Eccentric anomaly
90.41202°
Mean motion
3.47084 °/min
Orbital period
103.72 mins
BSTAR
0.00054623
Loading maneuver chart data...
Computing Atmospheric mass density...
Loading historical data...
Loading historical data...
Loading historical data...
Loading historical data...
Loading historical data...
Loading historical data...
Loading historical data...

Documentation

Showing up to 5 results
|